Location: Калининград
(54.7101°N, 20.5106°E)
Time: 06:50:57
(UTC+02:00)

ISS - Visible Passes

Search period start: 27 February 2024 00:00
Search period end: 08 March 2024 00:00
Orbit: 414 x 422 km, 51.6° (Epoch: 26 February)

Date Brightness Start Highest point End Pass type
(mag) Time Alt. Az. Time Alt. Az. Time Alt. Az.
27 Feb -3.3 05:34:09 45° SSW 05:34:38 49° S 05:37:56 10° E visible
28 Feb -2.0 04:48:08 30° ESE 04:48:08 30° ESE 04:50:07 10° E visible
28 Feb -3.1 06:21:03 17° WSW 06:23:22 44° S 06:26:37 10° ESE visible
29 Feb -0.5 04:02:04 11° E 04:02:04 11° E 04:02:15 10° E visible
29 Feb -3.4 05:34:59 43° SW 05:35:32 48° S 05:38:50 10° ESE visible
01 Mar -2.2 04:48:54 32° ESE 04:48:54 32° ESE 04:50:58 10° ESE visible
01 Mar -2.7 06:21:49 15° WSW 06:24:07 32° SSW 06:27:10 10° SE visible
02 Mar -0.6 04:02:48 12° E 04:02:48 12° E 04:03:02 10° E visible
02 Mar -3.1 05:35:43 36° SW 05:36:14 38° SSW 05:39:24 10° SE visible
03 Mar -2.1 04:49:37 28° SE 04:49:37 28° SE 04:51:32 10° ESE visible
03 Mar -2.0 06:22:33 13° WSW 06:24:34 20° SSW 06:27:06 10° SSE visible
04 Mar -0.5 04:03:33 10° ESE 04:03:33 10° ESE 04:03:34 10° ESE visible
04 Mar -2.5 05:36:28 25° SSW 05:36:39 26° SSW 05:39:31 10° SSE visible
05 Mar -1.6 04:50:26 19° SSE 04:50:26 19° SSE 04:51:42 10° SE visible
05 Mar -1.5 06:23:43 10° SW 06:24:41 11° SW 06:25:39 10° SSW visible
06 Mar -1.7 05:37:24 15° SSW 05:37:24 15° SSW 05:38:48 10° S visible
